Hourly Weather Roundup
Issued by NWS

Home | Current Version | Previous Version | Text Only | Print | Product List | Glossary On
Versions: 1 2 3 4 5 6 7 8 9 10 11 12 13 14 15 16 17 18 19 20 21 22 23 24 25 26 27 28 29 30 31 32 33 34 35 36 37 38 39 40 41 42 43 44 45 46 47 48 49 50
000
NZUS43 KILX 230410
HWRCRS

NWR Hourly Weather Roundup
National Weather Service Lincoln IL
1100 PM CDT SUN APR 22 2018


CITY           SKY/WX    TMP DP  RH WIND       PRES   REMARKS
Champaign      FAIR      54  32  43 NE14      30.14S
Lawrenceville  CLOUDY    61  36  39 NE12      30.06F
Peoria         FAIR      53  30  41 NE12      30.17F
Springfield    MOCLDY    58  33  39 E14       30.11F
$$


CITY           SKY/WX    TMP DP  RH WIND       PRES   REMARKS
Bloomington    FAIR      48  33  56 NE13      30.17S
Danville       FAIR      53  33  47 NE10      30.14S
Decatur        FAIR      55  33  43 NE15      30.12S
Effingham      CLOUDY    59  37  44 NE6       30.08F
Flora          DRIZZLE   59  44  58 NE8       30.06S
Galesburg      FAIR      56  32  40 NE13      30.18S
Jacksonville   CLOUDY    56  32  40 NE12      30.10F
Lacon          FAIR      51  28  41 NE9       30.18S
La Salle       FAIR      51  31  45 E13       30.21S
Lincoln        FAIR      55  35  46 E12       30.14S
Litchfield     CLOUDY    57  40  51 NE8       30.07F

CITY           SKY/WX    TMP DP  RH WIND       PRES   REMARKS
Macomb         CLOUDY    51  32  48 NE12      30.17S
Mattoon        CLOUDY    57  36  45 E15       30.09F
Moline         FAIR      55  27  34 E15       30.19S
Olney          CLOUDY    59  33  38 NE7       30.06S
Paris          FAIR      56  34  42 E12       30.13F
Pontiac        FAIR      47  32  55 NE14      30.20S
Quincy         CLOUDY    59  28  30 NE13      30.10F
Rantoul        FAIR      53  35  49 NE12G18   30.16S
Robinson       CLOUDY    60  31  33 E10       30.08F
Taylorville    CLOUDY    58  33  38 E14G20    30.09F
Terre Haute    CLOUDY    59  34  39 NE14      30.10F
$$


CITY           SKY/WX    TMP DP  RH WIND       PRES   REMARKS
Burlington     CLOUDY    56  28  34 NE13      30.16S
Chicago        MOCLDY    46  28  49 NE12      30.23F
Des Moines     PTCLDY    57  28  33 E6        30.18F
Evansville     LGT RAIN  59  45  59 NE12      30.04F
Indianapolis   CLOUDY    56  32  40 NE17      30.15S
Kansas City    CLOUDY    60  41  49 NE9       30.11S
Milwaukee      FAIR      43  28  55 CALM      30.28F
St Louis       LGT RAIN  58  49  72 E12       30.05F
$$





USA.gov is the U.S. government's official web portal to all federal, state and local government web resources and services.